DELTA 1 DEB, 42087

Orbit data source: Space-Track

DELTA 1 DEB, 42087 is space debris in SSO originally from a launch on Sun, 15 Dec 1968 UTC launched from the Air Force Western Test Range (AFWTR). Debris objects in space refer to the collection of defunct objects orbiting the Earth. Examples of debris include non-operational satellites, rocket bodies, and fragments generated from explosions, collisions, or faulty payload assembly.

Loading next visibility...
Identifier
42087, 1968-114P
Orbit
SSO
Country
Flag of USUS
Related business
Manufacturer
Aerojet
Mission
Spacecraft
Bus & Motor
Unknown
Mass
Unknown
Launch date (UTC)
1968-12-15 (57 years ago)
Launch vehicle
Unknown
Launch site
Air Force Western Test Range (AFWTR)
Object type
Payload
Rocket body
Debris
Shape & HBR
Unknown shape, 0.1 m
Radar Cross Section
Small (<0.1 m²)

Expand to show TLE details & history
Last TLE update: 2 days ago

TLE from 2 days ago
0 DELTA 1 DEB
1 42087U 68114P   25300.18973091  .00000651  00000-0  51245-2 0  9990
2 42087 101.4263 261.2978 0200276  56.9203 305.0917 12.35409854537389
Epoch: 2025-10-27T04:33Z
TLE epoch observation values (Epoch: 2025-10-27T04:33:12.750Z)
Latitude
-0.00003°
Longitude
157.19954°
Altitude
1,439.826 km
Speed
7.182 km/s
True Right ascension
17h 25m 11s
True Declination
0° 00' 00"
Sunlit
Object was in daylight at epoch
Visualization orbit readout
Latitude
Unknown
Longitude
Unknown
Altitude
Unknown
Speed
Unknown
Apparent Right ascension
Unknown
Apparent Declination
Unknown
Sunlit
N/A
Visualization observer readout
Local Sidereal Time
09:54:51
Azimuth
Unknown
Elevation
Unknown
Doppler factor
Unknown
Orbital elements
Apogee altitude
1,681.922 km
Perigee altitude
1,365.413 km
Semi-major axis
7,901.805 km
Eccentricity
0.02003
Inclination
101.4263°
RAAN
261.2978°
Arg. of periapsis
56.9203°
True anomaly
303.18681°
Mean anomaly
305.0917°
Eccentric anomaly
304.14197°
Mean motion
3.08997 °/min
Orbital period
116.51 mins
BSTAR
0.0051245
Loading maneuver chart data...
Computing Atmospheric mass density...
Loading historical data...
Loading historical data...
Loading historical data...
Loading historical data...
Loading historical data...
Loading historical data...
Loading historical data...

Documentation

Showing up to 5 results
|